{"data":{"norad_id":61964,"intl_designator":"2024-210F","name":"STARLINK-32513","alt_names":[],"object_type":"PAYLOAD","status":"ACTIVE","operator":null,"country":"US","launch_date":"2024-11-14","launch_site_code":"AFETR","launch_vehicle":null,"mission":null,"orbit_class":"UNKNOWN","rcs_meters":null,"size_class":null,"mass_kg":null,"dimensions":null,"purposes":["comms"],"wikipedia_slug":null,"has_3d_model":false,"image_url":null,"decayed_at":null,"tle_current":{"epoch":"2026-09-21T22:54:49.955040Z","epoch_age_seconds":59911,"freshness":"FRESH","line1":"1 61964U 24210F   26264.95474485  .00014179  00000+0  52360-3 0  9991","line2":"2 61964  43.0026 136.9330 0000332 274.4067  85.6747 15.27591356105092","mean_motion":15.27591356,"eccentricity":3.32e-5,"inclination_deg":43.0026,"raan_deg":136.933,"arg_perigee_deg":274.4067,"mean_anomaly_deg":85.6747,"bstar":0.0005236,"rev_number":10509,"period_min":94.266047941685,"perigee_km":482.78730205154,"apogee_km":483.24288255047,"semimajor_km":6861.152092301,"source":"CELESTRAK","updated_at":"2026-09-22T09:00:49.459035Z"}}}